Время (UTC), дата Ветер
(°,м/с) 
Видим.   Явления Облачность Т
(°С)
Тd
(°С)
f(%) Тe
(°С)
Pmin
(гПа)
dP
(гПа)
Po
(мм)
O2
(г/м3)
Тmin Tmax R s Состояние
почвы
00 01.08.11 280 (З) >10 км    3/0 верхняя 
[Ci fib]
+22.3 +17.7 75 +37  1007.7  0.5  718  263           
03 01.08.11 230 (ЮЗ) >10 км    3/0 верхняя 
[Ci fib]
+21.2 +19 87 +39  1008.1  0.3  718  264           
06 01.08.11 270 (З) >10 км    3/1 600 м средняя 
[Cu hum|Ac trans]
+25.5 +18 63 +41  1008  0.6  718  261  +19.1         
09 01.08.11 290 (З) >10 км    1/1 1000 м 
[Cu hum]
+28.8 +15.8 45 +40  1007.2  -0.3  718  258           
12 01.08.11 260 (З) >10 км    3/3 1000 м 
[Cu hum]
+30.2 +15.9 42 +42  1006.7  -0.3  718  257           
15 01.08.11 280 (З) >10 км    3/3 1000 м средняя 
[Sc diur, vesp|Ac trans]
+28.6 +15.3 44 +39  1007.3  0.3  718  259    +30.3       
18 01.08.11 310 (СЗ) >10 км    4/0 средняя 
[Ac trans]
+25 +15.1 54 +35  1008.4  0.5  719  262    +30.3       
21 01.08.11 300 (СЗ) >10 км    3/0 средняя 
[Ac trans]
+23.7 +14.7 57 +33  1008.7  0.1  719  263           
00 02.08.11 350 (С) >10 км    ясно 
+22 +14.5 62 +31  1009.3  0.1  719  265           
03 02.08.11 100 (В) >10 км    1/1 600 м 
[Sc]
+21.2 +14.8 67 +31  1009.6  0.2  719  266           
06 02.08.11 100 (В) >10 км    3/0 верхняя 
[Ci fib]
+25.8 +15.2 52 +36  1008.6  -0.3  719  261  +20.2         
09 02.08.11 080 (В) >10 км    ясно 
+30 +15.6 42 +41  1006.7  -1.1  718  257           
12 02.08.11 080 (В) >10 км    3/1 600 м средняя 
[Cu hum|Ac trans]
+32.2 +15.8 37 +44  1005.1  -1.2  717  255           
15 02.08.11 070 (В) >10 км    3/0 средняя 
[Ac trans]
+31.8 +16.6 40 +45  1004.1  -1  716  255    +32.8       
18 02.08.11 350 (С) >10 км    9/3 1000 м средняя 
[Sc|Ac trans]
+27.8 +16.7 51 +41  1005.3  0.5  717  258    +32.8       
21 02.08.11 320 (СЗ) >10 км  зарница  9/4 1000 м кучево-дожд., средняя 
[Cb calv|Ac trans]
+23.2 +17.5 70 +38  1006.9  0.8  717  262           
00 03.08.11 360 (С) >10 км  гроза без осадков  9/5 1000 м кучево-дожд., средняя 
[Cb calv|Ac trans]
+20.3 +18 87 +36  1006.2  -1.2  716  265           
03 03.08.11 320 (СЗ) 10 км  гроза, ливневой дождь  10/8 300 м кучево-дожд., средняя 
[Cb calv|Ac und]
+19.2 +18.6 96 +37  1008.9  2.4  718  266           
06 03.08.11 120 (ЮВ) 10 км  гроза, ливневой дождь  10/8 480 м кучево-дожд., средняя 
[Cb cap|Ac und]
+19.4 +18.6 95 +37  1008.8  0.6  718  266  +19       
09 03.08.11 200 (Ю) >10 км  гроза, ливневой дождь  10/6 600 м кучево-дожд., средняя 
[Cb cap|Ac und]
+20.9 +20 95 +41  1008.5  718  264           
12 03.08.11 230 (ЮЗ) >10 км  {гроза, ливн. осадки}  10/8 660 м кучево-дожд., средняя 
[Cb calv|Ac und]
+24.3 +19.2 73 +43  1008.5  0.6  719  261           
15 03.08.11 210 (ЮЗ) >10 км  {ливн. осадки}  8/3 600 м средняя 
[Cu hum|Ac trans]
+23.3 +19.7 80 +43  1008.7  719  262    +25       
18 03.08.11 230 (ЮЗ) >10 км    4/0 средняя 
[Ac trans]
+20.8 +19.3 91 +39  1009.9  0.8  719  265    +25     
21 03.08.11 210 (ЮЗ) >10 км    8/0 средняя 
[Ac trans]
+20.7 +18.8 89 +38  1009.6  -0.3  719  265           
00 04.08.11 280 (З) >10 км    3/0 средняя 
[Ac trans]
+20.1 +18.4 90 +37  1009.5  -0.3  719  265           
03 04.08.11 270 (З) >10 км    6/1 600 м кучево-дожд., средняя, верхняя 
[Cb cap|Ac trans|Cc]
+19 +17.1 89 +34  1010.5  0.7  719  267           
06 04.08.11 290 (З) >10 км    6/3 300 м средняя 
[Sc diur, vesp|Ac trans]
+23 +17.4 71 +37  1010.4  0.5  720  264  +18.5         
09 04.08.11 300 (СЗ) >10 км    6/6 600 м кучево-дожд. 
[Cb calv]
+25.2 +16.6 59 +38  1009.9  0.1  720  262           
12 04.08.11 350 (С) >10 км    6/6 800 м кучево-дожд. 
[Cb calv]
+25 +16.7 60 +38  1009.6  -0.3  719  262           
15 04.08.11 340 (С) >10 км    5/3 600 м средняя 
[Sc diur, vesp|Ac trans]
+23.8 +14.9 57 +33  1010  -0.1  720  264    +26.1       
18 04.08.11 320 (СЗ) >10 км    8/0 средняя 
[Ac trans]
+21.4 +12.6 57 +27  1011.5  720  267    +26.1       
21 04.08.11 250 (З) >10 км    8/0 средняя 
[Ac trans]
+18.5 +13.4 72 +26  1011.5  -0.5  720  269           
00 05.08.11 300 (СЗ) >10 км    3/0 средняя 
[Ac trans]
+18 +13.9 77 +27  1011.3  -0.2  720  269           
03 05.08.11 320 (СЗ) >10 км    8/3 600 м средняя 
[Sc|Ac trans]
+18.6 +12 65 +25  1011.8  0.5  720  269           
06 05.08.11 330 (СЗ) >10 км    6/3 1000 м средняя 
[Sc|Ac trans]
+22.4 +11.6 50 +27  1011.3  0.1  720  266  +16.8         
09 05.08.11 300 (СЗ) >10 км    5/5 600 м 
[Cu hum]
+25.3 +12.2 44 +30  1010  -0.7  720  263           
12 05.08.11 280 (З) >10 км    4/4 1000 м 
[Cu hum]
+25.8 +10.5 38 +28  1009.7  -0.3  720  263           
15 05.08.11 290 (З) >10 км    3/3 1000 м 
[Cu hum]
+24 +10.8 43 +27  1009.9  -0.1  719  264    +26.5       
18 05.08.11 330 (СЗ) >10 км    4/0 средняя 
[Ac trans]
+20.3 +11.6 57 +25  1011.9  1.2  720  268    +26.5       
21 05.08.11 310 (СЗ) >10 км    6/0 средняя 
[Ac trans]
+17.6 +12 70 +23  1012.7  0.3  721  270           
00 06.08.11 280 (З) >10 км    4/0 средняя 
[Ac trans]
+15.4 +11.7 79 +20  1013.2  721  273           
03 06.08.11 270 (З) >10 км    3/0 средняя 
[Ac trans]
+14.9 +11.7 81 +19  1013.8  0.6  721  273           
06 06.08.11 290 (З) >10 км    3/3 600 м 
[Cu hum]
+18.8 +12 65 +24  1013.7  0.5  722  270  +14.6         
09 06.08.11 280 (З) >10 км    6/6 600 м 
[Cu med, cong]
+21.1 +10.8 52 +24  1013.1  -0.2  721  268           
12 06.08.11 290 (З) >10 км    8/8 1000 м 
[Cu med, cong]
+22.6 +10.9 48 +26  1012.7  -0.2  721  266           
15 06.08.11 330 (СЗ) >10 км    6/6 1000 м 
[Cu hum]
+21.1 +10.2 50 +23  1013.4  0.4  722  268    +23       
18 06.08.11 340 (С) >10 км    3/0 средняя 
[Ac trans]
+18 +10.2 60 +21  1015.1  1.1  722  271    +23       
21 06.08.11 050 (СВ) >10 км    3/0 средняя 
[Ac trans]
+15.5 +10.6 73 +19  1015.4  -0.2  722  273           
00 07.08.11 тихо ()   н/о    н/о 
+13.4 +9.9 79 +15  1015.6  -0.2  722  275           
03 07.08.11 180 (Ю) >10 км    3/0 средняя 
[Ac trans]
+14.2 +10.9 81 +18  1015.7  0.3  722  275           
06 07.08.11 100 (В) >10 км    3/0 средняя 
[Ac trans]
+20.1 +11.3 57 +24  1015  0.4  723  269  +12.5         
09 07.08.11 100 (В) >10 км    4/4 600 м 
[Cu hum]
+20.1 +11.3 57 +24  1015  -0.5  722  269           
12 07.08.11 120 (ЮВ) >10 км    3/3 1000 м 
[Cu hum]
+25.5 +10.8 40 +29  1012.9  -0.6  722  264           
15 07.08.11 120 (ЮВ) >10 км    3/0 средняя 
[Ac trans]
+24.6 +10.9 42 +28  1012.9  0.1  722  265    +25.9       
18 07.08.11 180 (Ю) >10 км    3/0 средняя 
[Ac trans]
+19.3 +11.7 61 +24  1014.8  0.9  722  270    +25.9       
21 07.08.11 140 (ЮВ) >10 км    ясно 
+16.7 +12.2 75 +23  1015.1  0.1  722  272           
00 08.08.11 080 (В) >10 км    ясно 
+16.5 +12 75 +22  1015.3  0.1  722  272           
03 08.08.11 090 (В) >10 км    1/0 средняя 
[Ac trans]
+16.7 +13.2 80 +24  1016  0.8  723  272           
06 08.08.11 110 (В) >10 км    1/0 средняя 
[Ac trans]
+22.5 +14.4 60 +31  1015.7  0.7  723  266  +15.1         
09 08.08.11 120 (ЮВ) >10 км    1/1 600 м 
[Cu hum]
+26.9 +8.4 31 +27  1015.1  723  264           
12 08.08.11 120 (ЮВ) >10 км    ясно 
+27.9 +8.9 30 +28  1013.7  -1.2  723  263           
15 08.08.11 120 (ЮВ) >10 км    1/1 1000 м кучево-дожд. 
[Cb calv]
+26.4 +8.5 32 +26  1013.9  0.1  723  264    +28.1       
18 08.08.11 090 (В) >10 км    ясно 
+20.1 +9.6 51 +21  1015.8  0.8  723  270    +28.1       
21 08.08.11 120 (ЮВ) >10 км    ясно 
+18.3 +11.1 63 +22  1015.8  -0.3  723  271           
00 09.08.11 090 (В) >10 км    ясно 
+16.3 +12.2 77 +21  1016  0.1  723  272           
03 09.08.11 090 (В) >10 км    ясно 
+16.4 +13.1 81 +23  1016.4  0.4  723  272           
06 09.08.11 090 (В) >10 км    1/1 600 м средняя 
[Cu hum|As trans]
+23.1 +15.2 61 +33  1015.5  0.3  723  266  +14.1         
09 09.08.11 120 (ЮВ) >10 км    3/3 600 м 
[Cu hum]
+27 +11.1 37 +30  1014.4  -0.5  723  263           
12 09.08.11 120 (ЮВ) >10 км    3/3 600 м 
[Cu hum]
+27.9 +10.9 35 +31  1012.9  -1.2  722  262           
15 09.08.11 130 (ЮВ) >10 км    ясно 
+25.9 +14.2 48 +34  1012.6  -0.6  722  263    +28.2       
18 09.08.11 120 (ЮВ) >10 км    ясно 
+20.9 +12.2 57 +26  1013.8  0.3  722  268    +28.2       
21 09.08.11 100 (В) >10 км    ясно 
+17.7 +13.1 74 +24  1014.4  722  271           
00 10.08.11 110 (В) >10 км    ясно 
+15.7 +12.1 79 +21  1013.8  -0.9  721  272           
03 10.08.11 090 (В) >10 км    ясно 
+16.3 +11.7 74 +20  1013.7  721  272           
06 10.08.11 110 (В) >10 км    1/1 600 м 
[Cu hum]
+22.5 +13.8 58 +30  1012.8  0.2  721  266  +13.5         
09 10.08.11 110 (В) >10 км    5/5 600 м 
[Cu hum]
+26.3 +12 41 +31  1011.1  -1  721  263           
12 10.08.11 120 (ЮВ) >10 км    6/6 600 м 
[Cu hum]
+28 +10.9 34 +31  1009.7  -1.1  720  261           
15 10.08.11 110 (В) >10 км    3/3 600 м 
[Cu hum]
+26.4 +10.1 36 +29  1009.4  -0.6  719  262    +28.3       
18 10.08.11 090 (В) >10 км    ясно 
+22.2 +11.4 50 +26  1010.1  -0.6  719  266    +28.3       
21 10.08.11 100 (В) >10 км    ясно 
+19.6 +12.3 63 +25  1010.1  -0.4  719  268           
00 11.08.11 100 (В) >10 км    ясно 
+16.5 +14.7 89 +26  1009.3  -1.2  718  270           
03 11.08.11 110 (В) 10 км    9/8 100 м средняя 
[St|Ac trans]
+17.6 +17.1 97 +32  1008.9  0.1  718  268           
06 11.08.11 120 (ЮВ) >10 км    8/8 450 м 
[Sc]
+22 +17.3 75 +36  1007.8  -0.4  718  264  +16.1         
09 11.08.11 110 (В) 10  >10 км    1/1 600 м 
[Cu hum]
+28.6 +14.9 43 +38  1005.4  -1.2  717  258           
12 11.08.11 110 (В) 10  >10 км    ясно 
+30.8 +10.8 29 +34  1003.8  -1.2  716  257           
15 11.08.11 120 (ЮВ) >10 км    ясно 
+29.4 +8.4 27 +29  1003.3  -0.8  715  259    +31.4       
18 11.08.11 090 (В) >10 км    ясно 
+24.4 +6.9 33 +24  1005  0.9  716  264    +31.4       
21 11.08.11 090 (В) >10 км    ясно 
+20.2 +12 59 +25  1005.6  0.1  716  266           
00 12.08.11 100 (В) >10 км    1/0 средняя 
[Ac trans]
+17.7 +14.9 84 +28  1005.5  -0.5  716  268           
03 12.08.11 120 (ЮВ) >10 км    8/0 верхняя 
[Ci fib]
+17.7 +15.6 87 +29  1005.5  716  267           
06 12.08.11 110 (В) >10 км    8/0 средняя, верхняя 
[Ac trans|Ci fib]
+24.4 +16.3 61 +37  1004.2  0.1  716  261  +17.1         
09 12.08.11 110 (В) >10 км    8/3 600 м верхняя 
[Cu hum|Ci fib]
+28.5 +11.4 35 +33  1003.1  -0.4  715  259           
12 12.08.11 110 (В) >10 км    8/0 средняя, верхняя 
[Ac trans|Ci fib]
+31.6 +8.5 24 +32  1001.3  -1.3  714  256           
15 12.08.11 110 (В) >10 км    8/0 средняя 
[Ac trans]
+29.5 +7.5 25 +30  1001.1  -0.5  714  258    +32.1       
18 12.08.11 100 (В) >10 км    9/0 средняя 
[Ac trans]
+25.6 +8.9 35 +26  1003.2  1.4  715  262    +32.1       
21 12.08.11 090 (В) >10 км    6/0 средняя 
[Ac trans]
+20.8 +11.1 54 +24  1003.5  -0.4  715  265           
00 13.08.11 100 (В) >10 км    4/0 средняя 
[Ac trans]
+17.7 +13.1 74 +25  1003.1  -0.9  714  267           
03 13.08.11 080 (В) >10 км    6/0 средняя, верхняя 
[Ac trans|Ci fib]
+17 +13.4 79 +25  1003.6  0.4  714  268           
06 13.08.11 090 (В) >10 км    9/0 средняя, верхняя 
[Ac trans|Ci fib]
+24.1 +14.9 56 +34  1002.4  0.1  714  261  +15.5         
09 13.08.11 110 (В) >10 км    8/3 1000 м кучево-дожд., средняя, верхняя 
[Cb calv|Ac trans|Ci fib]
+26.4 +9.8 35 +28  1001.6  -0.4  714  261           
12 13.08.11 130 (ЮВ) >10 км    9/3 1000 м кучево-дожд., средняя, верхняя 
[Cb calv|Ac trans|Ci fib]
+28.8 +8.9 29 +29  1001.2  0.1  714  259           
15 13.08.11 тихо ()   >10 км    10/3 1000 м кучево-дожд., средняя 
[Cb calv|Ac und]
+26.8 +10.4 36 +29  1001.1  -0.3  714  260    +30.5       
18 13.08.11 270 (З) >10 км    10/5 1000 м кучево-дожд., средняя 
[Cb calv|Ac und]
+22.8 +11.2 48 +27  1003.3  1.4  715  264    +30.5       
21 13.08.11 270 (З) >10 км    10/4 1000 м кучево-дожд., средняя 
[Cb calv|Ac und]
+20 +17.4 85 +35  1003.5  -0.1  715  264           
00 14.08.11 280 (З) >10 км    9/3 1000 м кучево-дожд., средняя 
[Cb calv|Ac trans]
+18.4 +16.4 88 +32  1004.1  0.3  715  266           
03 14.08.11 320 (СЗ) >10 км    9/3 1000 м кучево-дожд., средняя 
[Cb calv|Ac trans]
+19.8 +17.1 84 +35  1005  1.1  716  265           
06 14.08.11 360 (С) >10 км    6/1 1000 м кучево-дожд., средняя 
[Cb calv|Ac trans]
+25.6 +16.1 56 +38  1005  0.9  716  260  +18         
09 14.08.11 290 (З) >10 км    8/4 1000 м кучево-дожд., средняя 
[Cb calv|Ac trans]
+26.3 +16.6 55 +39  1005.5  0.7  717  260           
12 14.08.11 280 (З) >10 км    8/3 1000 м кучево-дожд., средняя 
[Cb calv|Ac trans]
+27 +14.8 47 +37  1006.5  717  260           
15 14.08.11 310 (СЗ) >10 км  в посл. час гроза  8/3 1000 м кучево-дожд., средняя 
[Cb calv|Ac trans]
+24.7 +16.3 60 +37  1007.1  0.2  718  262    +28.3       
18 14.08.11 300 (СЗ) >10 км  {гроза}  6/0 средняя 
[Ac trans]
+19.5 +15.2 76 +30  1009.7  1.6  719  267    +28.3       
21 14.08.11 250 (З) >10 км    6/0 средняя 
[Ac trans]
+17.5 +14.7 84 +27  1010.3  0.2  719  269           
00 15.08.11 230 (ЮЗ) >10 км    6/0 средняя 
[Ac trans]
+16.8 +14.4 86 +27  1011  0.2  719  270           
03 15.08.11 300 (СЗ) >10 км    8/5 1000 м кучево-дожд., средняя 
[Cb calv|Ac trans]
+19.1 +15 77 +30  1010.7  0.1  719  268           
06 15.08.11 300 (СЗ) >10 км    3/0 средняя 
[Ac trans]
+24.2 +14.4 54 +33  1010.3  0.4  720  263  +16.2         
09 15.08.11 270 (З) >10 км    3/3 600 м 
[Cu hum]
+28.3 +13.8 41 +36  1009.7  0.1  720  260           
12 15.08.11 360 (С) >10 км    4/4 600 м 
[Cu hum]
+28.8 +14.9 43 +38  1009.4  -0.2  720  259           
15 15.08.11 320 (СЗ) >10 км    8/4 600 м кучево-дожд., средняя, верхняя 
[Cb calv|Ac trans|Ci fib]
+27 +15.2 48 +37  1009.6  0.1  720  261    +29.4       
18 15.08.11 230 (ЮЗ) >10 км  гроза, ливневой дождь  10/5 1000 м кучево-дожд., средняя 
[Cb cap|Ac und]
+21.7 +18.2 80 +38  1012.7  2.2  721  265    +29.4       
21 15.08.11 340 (С) >10 км  гроза, ливневой дождь  8/5 600 м кучево-дожд., средняя 
[Cb calv|Ac trans]
+19.8 +14.6 72 +30  1011.6  -1.5  720  267           
00 16.08.11 270 (З) >10 км  зарница{гроза, ливн. осадки}  3/3 1000 м кучево-дожд., средняя 
[Cb cap|Ac cuf]
+17.5 +14.3 81 +27  1011.7  -0.3  720  270           
03 16.08.11 220 (ЮЗ) >10 км    8/4 1000 м кучево-дожд., средняя 
[Cb cap|Ac cuf]
+17.6 +15.7 89 +30  1011.9  -0.3  720  269           
06 16.08.11 330 (СЗ) >10 км    8/8 600 м кучево-дожд. 
[Cb calv]
+22.8 +16 65 +34  1011.2  0.2  720  264  +17.4       
09 16.08.11 350 (С) >10 км    6/3 600 м средняя, верхняя 
[Cu med, cong|Ac trans|Ci fib]
+27 +16.5 53 +40  1009.8  -0.6  720  260           
12 16.08.11 010 (С) >10 км    6/6 600 м кучево-дожд. 
[Cb calv]
+27.4 +15.1 47 +37  1008.5  -1.2  719  260           
15 16.08.11 290 (З) >10 км    8/3 600 м кучево-дожд., верхняя 
[Cb calv|Ci fib]
+25.8 +16.6 57 +39  1008.4  -0.3  719  261    +28.9       
18 16.08.11 290 (З) >10 км  гроза без осадков  4/3 600 м кучево-дожд., средняя 
[Cb calv|Ac trans]
+22.7 +16.8 69 +36  1009.5  0.6  719  264    +28.9       
21 16.08.11 300 (СЗ) >10 км  {гроза}  ясно 
+20.6 +16.8 79 +34  1010  0.1  719  266           
00 17.08.11 320 (СЗ) >10 км  {гроза}  1/0 верхняя 
[Ci fib]
+19.4 +16.1 81 +32  1010.5  0.3  719  267           
03 17.08.11 250 (З) >10 км    3/1 1000 м кучево-дожд., верхняя 
[Cb calv|Ci fib]
+17.6 +15.9 90 +29  1011.1  0.2  720  269           
06 17.08.11 280 (З) >10 км    6/0 средняя 
[Ac trans]
+23.2 +16.8 67 +36  1010.1  720  263  +17.4         
09 17.08.11 280 (З) >10 км    5/4 600 м средняя 
[Cu hum|Ac trans]
+27.5 +12.7 40 +33  1009.3  -0.2  719  261           
12 17.08.11 280 (З) >10 км    5/0 
[Cu hum]
+28.9 +11.5 34 +33  1008.1  -1  719  260           
15 17.08.11 300 (СЗ) >10 км    6/3 1000 м средняя 
[Cu hum|Ac trans]
+25.4 +15.1 53 +35  1009  0.4  719  262    +29.5       
18 17.08.11 290 (З) >10 км    5/0 средняя 
[Ac trans]
+22.6 +13.2 55 +29  1010.6  720  265    +29.5       
21 17.08.11 300 (СЗ) >10 км    6/0 средняя 
[Ac trans]
+21.2 +15.1 68 +31  1010.7  -0.1  720  266           
00 18.08.11 270 (З) >10 км    6/0 средняя 
[Ac trans]
+19.6 +14.9 74 +30  1011.2  0.2  720  267           
03 18.08.11 260 (З) >10 км  {ливн. осадки}  6/3 1000 м кучево-дожд., средняя 
[Cb calv|Ac trans]
+17.9 +15.7 87 +29  1011.1  -0.3  720  269           
06 18.08.11 260 (З) >10 км    8/4 600 м кучево-дожд., верхняя 
[Cb calv|Ci fib]
+23.8 +14.9 57 +33  1010.3  0.2  720  264  +17.2    0.5     
09 18.08.11 250 (З) >10 км    ясно 
+26.5 +15.1 50 +36  1008.8  -1  719  261           
12 18.08.11 290 (З) >10 км    8/6 900 м кучево-дожд., верхняя 
[Cb calv|Ci fib]
+26.8 +14.7 47 +36  1008.6  -0.2  719  261           
15 18.08.11 290 (З) >10 км  в посл. час гроза{ливн. осадки}  9/4 600 м кучево-дожд., верхняя 
[Cb calv|Ci fib]
+21.1 +15.7 71 +32  1009.1  -0.5  719  265    +28.4       
18 18.08.11 260 (З) >10 км  {гроза, ливн. осадки}  10/6 800 м кучево-дожд., верхняя 
[Cb calv|Ci ing]
+19 +15.9 82 +30  1011.4  1.9  720  268    +28.4     
21 18.08.11 270 (З) >10 км    8/4 600 м кучево-дожд., верхняя 
[Cb calv|Ci fib]
+18.5 +16.6 89 +32  1011.8  0.2  720  268           
00 19.08.11 260 (З) >10 км    8/3 600 м кучево-дожд., верхняя 
[Cb calv|Ci fib]
+18.2 +17 93 +32  1011.5  -0.3  720  268           
03 19.08.11 260 (З) >10 км    8/6 270 м верхняя 
[St|Ci fib]
+18.1 +16.9 93 +31  1011.6  -0.1  720  268           
06 19.08.11 260 (З) >10 км    10/6 420 м кучево-дожд., средняя 
[Cb calv|Ac und]
+19.7 +17.3 86 +34  1011.6  0.3  720  267  +17.5         
09 19.08.11 270 (З) >10 км    6/6 600 м 
[Cu med, cong]
+23.1 +16.4 66 +35  1011.1  720  264           
12 19.08.11 290 (З) >10 км    6/6 600 м 
[Cu med, cong]
+24.3 +14.2 53 +33  1009.9  -0.9  720  263           
15 19.08.11 300 (СЗ) >10 км    4/4 600 м 
[Cu hum]
+22.7 +14.1 58 +31  1010.8  0.5  720  265    +25       
18 19.08.11 280 (З) >10 км    1/0 средняя 
[Ac trans]
+18.8 +14.5 76 +28  1012.6  1.1  721  269    +25       
21 19.08.11 280 (З) >10 км    1/0 средняя 
[Ac trans]
+17.3 +13.7 79 +26  1012.7  -0.2  721  270           
00 20.08.11 270 (З) >10 км    ясно 
+15.1 +14 93 +23  1013.4  0.3  721  272           
03 20.08.11 270 (З) >10 км    5/3 600 м кучево-дожд., средняя 
[Cb calv|Ac trans]
+16.8 +15.3 91 +27  1013.6  0.5  721  270           
06 20.08.11 250 (З) >10 км    4/4 400 м кучево-дожд. 
[Cb calv]
+20.6 +16 75 +32  1012.9  0.1  721  267  +14.7         
09 20.08.11 290 (З) >10 км    4/4 600 м кучево-дожд. 
[Cb calv]
+23.5 +14.8 58 +33  1012.9  0.4  722  265           
12 20.08.11 290 (З) >10 км    4/4 600 м кучево-дожд. 
[Cb calv]
+25.8 +13 45 +32  1012.3  -0.2  721  263           
15 20.08.11 290 (З) >10 км    3/3 600 м 
[Cu med, cong]
+23.7 +12.8 50 +30  1013.1  0.3  722  265    +25.8       
18 20.08.11 290 (З) >10 км    3/0 средняя 
[Ac trans]
+20.4 +12.7 61 +26  1014.9  1.1  723  268    +25.8       
21 20.08.11 290 (З) >10 км    3/0 средняя 
[Ac trans]
+17.3 +12.7 74 +24  1015.2  -0.2  722  271           
00 21.08.11 300 (СЗ) >10 км    ясно 
+16.6 +12.8 78 +24  1014.5  -0.8  722  272           
03 21.08.11 240 (ЮЗ) >10 км    1/0 верхняя 
[Ci fib]
+15.8 +12.7 82 +23  1014.8  0.1  722  272           
06 21.08.11 280 (З) >10 км    3/0 средняя, верхняя 
[Ac trans|Ci fib]
+22.7 +12.7 53 +29  1013.6  722  266  +14.2         
09 21.08.11 240 (ЮЗ) >10 км    4/4 600 м 
[Cu hum]
+25 +12.2 45 +30  1012.2  -1  721  264           
12 21.08.11 290 (З) >10 км    1/1 600 м кучево-дожд. 
[Cb cap]
+26.2 +8.9 34 +27  1011  -1  720  263           
15 21.08.11 270 (З) >10 км    3/0 средняя 
[Ac trans]
+24.3 +10.4 42 +27  1011.5  0.2  721  265    +26.6       
18 21.08.11 260 (З) >10 км    8/0 средняя 
[Ac trans]
+20.6 +11.3 55 +24  1012.7  0.6  721  268    +26.6       
21 21.08.11 270 (З) >10 км    4/0 средняя 
[Ac As]
+18.5 +14.5 77 +28  1013.2  0.1  721  269           
00 22.08.11 270 (З) >10 км    4/0 средняя 
[Ac trans]
+17.6 +14.4 82 +27  1013  -0.3  721  270           
03 22.08.11 260 (З) >10 км    3/0 средняя 
[Ac trans]
+16.6 +13.5 82 +23  1013.8  0.5  721  271           
06 22.08.11 280 (З) >10 км    3/3 600 м 
[Cu hum]
+21 +13 60 +27  1013.2  0.1  721  267  +15.7         
09 22.08.11 280 (З) >10 км    8/8 800 м кучево-дожд. 
[Cb calv]
+22.8 +10.9 47 +26  1012.5  -0.3  721  266           
12 22.08.11 290 (З) >10 км    8/5 600 м кучево-дожд., верхняя 
[Cb calv|Ci fib]
+22.9 +11.6 49 +27  1012.1  -0.4  721  266           
15 22.08.11 280 (З) >10 км    8/5 600 м кучево-дожд., средняя 
[Cb calv|Ac trans]
+21.9 +10.6 49 +25  1013  0.6  721  267           
18 22.08.11 290 (З) >10 км    8/4 1000 м кучево-дожд., средняя 
[Cb calv|Ac trans]
+19.5 +11 58 +23  1015.3  1.8  723  270    +26.6       
21 22.08.11 280 (З) >10 км    4/0 средняя 
[Ac trans]
+16.4 +11.2 71 +21  1016.3  0.4  723  273           
00 23.08.11 260 (З) >10 км    3/0 средняя 
[Ac trans]
+14.1 +11 82 +17  1016.8  -0.1  723  275           
03 23.08.11 270 (З) >10 км    8/5 600 м кучево-дожд., средняя 
[Cb calv|Ac trans]
+14.2 +12.2 88 +19  1017.8  724  275           
06 23.08.11 310 (СЗ) >10 км    3/3 600 м верхняя 
[Cu hum|Ci fib]
+19 +11.9 63 +24  1017.7  0.7  724  271  +13.9         
09 23.08.11 320 (СЗ) >10 км    8/5 600 м верхняя 
[Cu hum|Ci fib]
+22.3 +10.4 47 +25  1016.8  -0.3  724  268           
12 23.08.11 290 (З) >10 км    8/3 600 м верхняя 
[Cu hum|Ci fib]
+23.5 +8 37 +24  1016  -0.5  724  267           
15 23.08.11 310 (СЗ) >10 км    5/3 1000 м верхняя 
[Cu hum|Ci fib]
+22.1 +7.8 40 +22  1016.2  0.1  724  268    +23.6       
18 23.08.11 320 (СЗ) >10 км    6/0 средняя 
[Ac trans]
+18.1 +9.4 57 +21  1017.9  0.9  724  272    +23.6       
21 23.08.11 240 (ЮЗ) >10 км    3/0 средняя 
[Ac trans]
+14.1 +8.9 71 +14  1018.2  -0.4  724  276           
00 24.08.11 310 (СЗ) >10 км    3/0 средняя 
[Ac trans]
+16.6 +9.5 63 +18  1017.3  -0.4  724  273           
03 24.08.11 270 (З) >10 км    3/1 1000 м кучево-дожд., средняя 
[Cb calv|Ac trans]
+14.6 +9.7 72 +16  1017.7  0.1  724  275           
06 24.08.11 240 (ЮЗ) >10 км    3/1 600 м верхняя 
[Cu hum|Ci fib]
+22.1 +10.5 48 +25  1016.1  -0.3  724  268  +12.5         
09 24.08.11 320 (СЗ) >10 км    6/6 600 м 
[Cu med, cong]
+22.6 +9.9 44 +24  1015.2  -0.8  723  267           
12 24.08.11 280 (З) >10 км    6/4 600 м верхняя 
[Cu med, cong|Ci fib]
+26 +8.2 32 +26  1013.4  -1.1  722  264           
15 24.08.11 260 (З) >10 км    8/3 600 м кучево-дожд., средняя 
[Cb calv|Ac trans]
+22.7 +9.5 43 +24  1013.7  -0.3  722  267    +26.3       
18 24.08.11 010 (С) >10 км    9/0 средняя 
[Ac trans]
+20.3 +11.4 57 +24  1015.1  0.9  723  269    +26.3       
21 24.08.11 100 (В) >10 км    10/3 1000 м кучево-дожд., средняя 
[Cb calv|Ac und]
+17.4 +11.4 68 +22  1014.8  -0.8  722  271           
00 25.08.11 140 (ЮВ) >10 км    4/0 средняя 
[Ac trans]
+15.9 +10.7 71 +19  1014.4  -0.6  722  273           
03 25.08.11 070 (В) >10 км    8/3 300 м кучево-дожд., средняя 
[Cb calv|Ac trans]
+15.9 +11.1 73 +19  1014.7  0.3  722  273           
06 25.08.11 120 (ЮВ) >10 км    9/4 300 м кучево-дожд., средняя 
[Cb calv|Ac trans]
+17 +12.8 76 +23  1015.1  0.5  722  271  +14.2         
09 25.08.11 050 (СВ) >10 км  {ливн. осадки}  8/4 600 м кучево-дожд., средняя 
[Cb calv|As trans]
+19.7 +15.1 75 +30  1015.1  0.6  723  268           
12 25.08.11 080 (В) >10 км  слаб. ливневой дождь  10/5 600 м кучево-дожд., средняя 
[Cb cap|Ac trans]
+17 +15.7 92 +29  1016.9  1.2  724  271           
15 25.08.11 080 (В) >10 км  {ливн. осадки}  4/4 600 м 
+18 +14.8 82 +27  1017.2  0.5  724  271    +20.9       
18 25.08.11 090 (В) >10 км  {ливн. осадки}  6/1 1000 м кучево-дожд., средняя 
[Cb calv|Ac trans]
+14.6 +13.8 95 +23  1019.7  1.8  725  275    +20.9     
21 25.08.11 070 (В) >10 км    5/0 средняя 
[Ac trans]
+13.1 +12.2 94 +18  1020.1  725  276           
00 26.08.11 050 (СВ) >10 км    ясно 
+11.6 +10.9 96 +14  1020.7  0.3  726  278           
03 26.08.11 090 (В) 10 км    8/6 210 м средняя 
[St|Ac trans]
+11.3 +10.4 94 +12  1021.7  0.8  726  279           
06 26.08.11 080 (В) >10 км    5/3 600 м верхняя 
[Sc|Ci fib]
+16.8 +10.1 65 +18  1022.2  1.5  727  274  +10.6         
09 26.08.11 080 (В) >10 км    8/5 600 м верхняя 
[Sc|Ci fib]
+20.8 +5.9 38 +21  1021.9  0.3  728  271           
12 26.08.11 060 (СВ) >10 км    6/4 600 м верхняя 
[Sc|Ci fib]
+22.1 +4.3 31 +22  1021  -0.6  727  270           
15 26.08.11 120 (ЮВ) >10 км    3/1 1000 м средняя 
[Sc|Ac trans]
+19.4 +6.5 43 +20  1021.8  0.3  727  273    +22.3       
18 26.08.11 140 (ЮВ) >10 км    1/0 средняя 
[Ac cuf]
+12.9 +8.5 75 +13  1024.2  1.2  728  279    +22.3       
21 26.08.11 090 (В) >10 км    ясно 
+10.9 +7.2 78 +11  1024.6  0.1  728  281           
00 27.08.11 090 (В) >10 км    ясно 
+10 +7.3 83 +10  1024.9  0.1  728  282           
03 27.08.11 090 (В) >10 км    3/0 верхняя 
[Ci fib]
+10.4 +8.8 90 +10  1024.3  -0.5  728  281           
06 27.08.11 110 (В) >10 км    4/1 600 м кучево-дожд., верхняя 
[Cb calv|Ci fib]
+17.6 +8.5 55 +17  1023.3  0.4  728  274  +8.9         
09 27.08.11 110 (В) >10 км    3/1 600 м кучево-дожд., верхняя 
[Cb calv|Ci fib]
+22 +4.9 33 +22  1022.1  -0.4  728  271           
12 27.08.11 100 (В) >10 км    3/3 1000 м 
[Cu hum]
+22.6 +6.6 36 +23  1021  -0.9  727  269           
15 27.08.11 120 (ЮВ) >10 км    1/1 1000 м 
[Sc diur, vesp]
+20.5 +8 44 +21  1020.6  -0.7  727  271    +23.2       
18 27.08.11 110 (В) >10 км    1/0 средняя 
[As trans]
+14 +8.9 71 +14  1022.1  0.3  727  277    +23.2       
21 27.08.11 080 (В) >10 км    1/0 средняя 
[Ac trans]
+12.7 +8.5 76 +12  1022.2  -0.2  727  278           
00 28.08.11 080 (В) >10 км    ясно 
+10.3 +7.9 85 +9  1022.3  -0.3  726  281           
03 28.08.11 070 (В) >10 км    ясно 
+10.5 +8.7 89 +10  1022  -0.2  726  280           
06 28.08.11 100 (В) >10 км    ясно 
+19.6 +7.1 44 +20  1021.4  -0.2  727  272  +9.1         
09 28.08.11 100 (В) >10 км    ясно 
+23.8 +0.8 22 +24  1020.4  -0.3  727  269           
12 28.08.11 100 (В) >10 км    3/0 верхняя 
[Ci fib]
+24.9 +0.1 20 +25  1019.3  -0.8  726  268           
15 28.08.11 080 (В) >10 км    3/0 верхняя 
[Ci fib]
+22.4 +0.9 24 +22  1019.6  -0.2  726  270    +25       
18 28.08.11 110 (В) >10 км    ясно 
+14.9 +2.3 43 +15  1021.2  0.2  726  277    +25       
21 28.08.11 120 (ЮВ) >10 км    ясно 
+14.2 +3.9 50 +14  1021.4  0.1  726  278           
00 29.08.11 120 (ЮВ) >10 км    ясно 
+13.5 +6.8 64 +13  1020.7  -0.8  726  277           
03 29.08.11 100 (В) >10 км    ясно 
+12.4 +7.6 73 +12  1020.6  -0.3  725  278           
06 29.08.11 100 (В) >10 км    ясно 
+21.2 +6.1 37 +21  1019.2  0.2  726  270  +11.3         
09 29.08.11 120 (ЮВ) >10 км    н/о 
+26 +3 23 +26  1017.3  -1  725  266           
12 29.08.11 110 (В) >10 км    ?/?  
+27.9 +2.2 19 +28  1015.4  -1.5  724  264           
15 29.08.11 110 (В) >10 км    ?/?  
+25.5 +2 22 +26  1014.7  -1  723  266    +28.2       
18 29.08.11 100 (В) >10 км    3/0 средняя 
[Ac trans]
+17.2 +3.7 41 +17  1016.3  0.1  723  273    +28.2       
21 29.08.11 120 (ЮВ) >10 км    ясно 
+16.6 +5.5 48 +17  1015.4  -0.9  722  273           
00 30.08.11 120 (ЮВ) >10 км    ясно 
+13.4 +5.6 59 +13  1014.7  -1.3  721  276           
03 30.08.11 100 (В) >10 км    3/0 верхняя 
[Ci fib]
+15.1 +5.7 53 +14  1013.8  -0.6  721  274           
06 30.08.11 110 (В) 11  >10 км    ясно 
+23.1 +3.2 27 +23  1012.4  721  267  +12.6         
12 30.08.11 120 (ЮВ) 10  >10 км    ясно 
+29.6 +5.7 22 +30  1009  -1.3  719  261           
15 30.08.11 110 (В) >10 км    ясно 
+26.8 +7.3 29 +27  1009.2  -0.7  719  263           
18 30.08.11 090 (В) >10 км    ясно 
+21.6 +7.6 40 +22  1010.4  0.3  719  267    +30.2       
21 30.08.11 110 (В) >10 км    ясно 
+18 +14.1 78 +26  1009.4  718  269           
00 31.08.11 130 (ЮВ) >10 км    8/8 330 м 
[Sc]
+17.6 +15.4 87 +28  1008.5  -0.9  718  268           
06 31.08.11 120 (ЮВ) >10 км    4/4 600 м 
[Sc]
+22.6 +15.8 65 +34  1008.3  0.3  718  264  +16.8         
09 31.08.11 120 (ЮВ) >10 км    1/1 600 м 
[Sc]
+26.4 +15.7 52 +38  1007.3  -0.3  718  260           
12 31.08.11 110 (В) >10 км    1/0 средняя 
[Ac trans]
+27.5 +15.6 48 +38  1006.7  -0.4  718  259           
15 31.08.11 100 (В) >10 км    1/1 1000 м 
[Sc]
+25.6 +15.1 52 +36  1007.1  0.1  718  261    +27.9       
18 31.08.11 180 (Ю) >10 км    3/3 1000 м 
[Sc]
+20.3 +15.1 72 +30  1009.1  719  266    +27.9       
21 31.08.11 170 (Ю) >10 км    3/3 1000 м кучево-дожд. 
[Cb calv]
+20.4 +15.4 73 +31  1008.7  -0.4  718  266           
00 01.09.11 170 (Ю) >10 км    3/3 1000 м кучево-дожд. 
[Cb calv]
+17.9 +15.2 84 +28  1009.9  0.7  719  268           
03 01.09.11 300 (СЗ) >10 км  в посл. час ливневой дождь  6/3 1000 м кучево-дожд., верхняя 
[Cb calv|Ci fib]
+19.6 +16.5 82 +33  1009.3  -0.2  719  266           
06 01.09.11 290 (З) >10 км  {ливн. осадки}  8/3 300 м кучево-дожд., средняя, верхняя 
[Cb calv|Ac trans|Ci fib]
+23.3 +17.3 69 +38  1010  1.2  719  263  +17.9    0.0     
09 01.09.11 340 (С) >10 км    8/8 600 м кучево-дожд. 
[Cb calv]
+25.1 +16.5 59 +38  1009.5  719  262           
Время (UTC), дата Ветер
(°,м/с) 
Видим.   Явления Облачность Т
(°С)
Тd
(°С)
f(%) Тe
(°С)
Pmin
(гПа)
dP
(гПа)
Po
(мм)
O2
(г/м3)
Тmin Tmax R s Состояние
почвы